Time,TemperatureF,DewpointF,PressureIn,WindDirection,WindDirectionDegrees,WindSpeedMPH,WindSpeedGustMPH,Humidity,HourlyPrecipIn,Conditions,Clouds,dailyrainin,SoftwareType,DateUTC
2013-03-04 00:01:00,23.0,19.0,30.09,NW,309,0.0,4.0,84,0.00,,,0.00,,2013-03-04 05:01:00,
2013-03-04 00:11:00,23.0,19.0,30.09,NW,309,0.0,4.0,84,0.00,,,0.00,,2013-03-04 05:11:00,
2013-03-04 00:22:00,23.0,19.0,30.10,West,265,1.0,3.0,84,0.00,,,0.00,,2013-03-04 05:22:00,
2013-03-04 00:32:00,23.0,19.0,30.10,West,269,0.0,4.0,84,0.00,,,0.00,,2013-03-04 05:32:00,
2013-03-04 00:42:00,23.0,19.0,30.10,West,269,0.0,4.0,84,0.00,,,0.00,,2013-03-04 05:42:00,
2013-03-04 00:52:00,22.0,18.0,30.11,WNW,288,0.0,6.0,84,0.00,,,0.00,,2013-03-04 05:52:00,
2013-03-04 02:32:00,21.0,17.0,30.11,WNW,288,0.0,1.0,85,0.00,,,0.00,,2013-03-04 07:32:00,
2013-03-04 02:42:00,21.0,17.0,30.11,WNW,288,0.0,1.0,85,0.00,,,0.00,,2013-03-04 07:42:00,
2013-03-04 02:52:00,21.0,17.0,30.11,WNW,288,0.0,1.0,85,0.00,,,0.00,,2013-03-04 07:52:00,
2013-03-04 03:02:00,21.0,17.0,30.11,WNW,288,0.0,5.0,85,0.00,,,0.00,,2013-03-04 08:02:00,
2013-03-04 03:12:00,21.0,17.0,30.11,WNW,288,0.0,5.0,85,0.00,,,0.00,,2013-03-04 08:12:00,
2013-03-04 03:22:00,21.0,17.0,30.11,WNW,288,0.0,1.0,85,0.00,,,0.00,,2013-03-04 08:22:00,
2013-03-04 03:32:00,21.0,17.0,30.11,WNW,294,0.0,4.0,84,0.00,,,0.00,,2013-03-04 08:32:00,
2013-03-04 03:42:00,21.0,17.0,30.11,WNW,294,0.0,4.0,84,0.00,,,0.00,,2013-03-04 08:42:00,
2013-03-04 03:52:00,21.0,17.0,30.12,West,279,0.0,2.0,85,0.00,,,0.00,,2013-03-04 08:52:00,
2013-03-04 04:02:00,20.0,16.0,30.13,WNW,283,1.0,4.0,86,0.00,,,0.00,,2013-03-04 09:02:00,
2013-03-04 04:11:00,20.0,16.0,30.13,WNW,283,1.0,4.0,86,0.00,,,0.00,,2013-03-04 09:11:00,
2013-03-04 04:22:00,20.0,16.0,30.13,WNW,283,0.0,2.0,86,0.00,,,0.00,,2013-03-04 09:22:00,
2013-03-04 04:32:00,20.0,16.0,30.12,WNW,283,0.0,1.0,86,0.00,,,0.00,,2013-03-04 09:32:00,
2013-03-04 04:42:00,20.0,16.0,30.12,WNW,283,0.0,1.0,86,0.00,,,0.00,,2013-03-04 09:42:00,
2013-03-04 04:52:00,20.0,16.0,30.13,WNW,283,0.0,2.0,86,0.00,,,0.00,,2013-03-04 09:52:00,
2013-03-04 05:01:00,20.0,16.0,30.14,WNW,283,0.0,1.0,86,0.00,,,0.00,,2013-03-04 10:01:00,
2013-03-04 05:12:00,20.0,16.0,30.14,WNW,283,0.0,1.0,86,0.00,,,0.00,,2013-03-04 10:12:00,
2013-03-04 05:22:00,20.0,17.0,30.14,WNW,283,0.0,2.0,87,0.00,,,0.00,,2013-03-04 10:22:00,
2013-03-04 05:32:00,20.0,17.0,30.14,WNW,283,0.0,3.0,87,0.00,,,0.00,,2013-03-04 10:32:00,
2013-03-04 05:42:00,20.0,17.0,30.14,WNW,283,0.0,3.0,87,0.00,,,0.00,,2013-03-04 10:42:00,
2013-03-04 05:52:00,19.0,16.0,30.14,WNW,283,0.0,2.0,87,0.00,,,0.00,,2013-03-04 10:52:00,
2013-03-04 06:02:00,19.0,16.0,30.14,WNW,283,0.0,1.0,88,0.00,,,0.00,,2013-03-04 11:02:00,
2013-03-04 06:11:00,19.0,16.0,30.14,WNW,283,0.0,1.0,88,0.00,,,0.00,,2013-03-04 11:11:00,
2013-03-04 06:22:00,19.0,16.0,30.15,West,281,0.0,7.0,88,0.00,,,0.00,,2013-03-04 11:22:00,
2013-03-04 07:22:00,19.0,16.0,30.16,West,281,0.0,2.0,89,0.00,,,0.00,,2013-03-04 12:22:00,
2013-03-04 07:32:00,18.0,15.0,30.16,West,281,0.0,1.0,89,0.00,,,0.00,,2013-03-04 12:32:00,
2013-03-04 07:42:00,18.0,15.0,30.16,West,281,0.0,1.0,89,0.00,,,0.00,,2013-03-04 12:42:00,
2013-03-04 07:52:00,19.0,16.0,30.16,West,281,0.0,3.0,89,0.00,,,0.00,,2013-03-04 12:52:00,
2013-03-04 08:02:00,19.0,16.0,30.16,West,281,0.0,1.0,89,0.00,,,0.00,,2013-03-04 13:02:00,
2013-03-04 08:11:00,19.0,16.0,30.16,West,281,0.0,1.0,89,0.00,,,0.00,,2013-03-04 13:11:00,
2013-03-04 08:22:00,19.0,16.0,30.17,West,281,0.0,1.0,89,0.00,,,0.00,,2013-03-04 13:22:00,
2013-03-04 08:32:00,20.0,18.0,30.16,West,281,0.0,3.0,90,0.00,,,0.00,,2013-03-04 13:32:00,
2013-03-04 08:42:00,20.0,18.0,30.16,West,281,0.0,3.0,90,0.00,,,0.00,,2013-03-04 13:42:00,
2013-03-04 08:52:00,22.0,19.0,30.17,NW,313,1.0,4.0,88,0.00,,,0.00,,2013-03-04 13:52:00,
2013-03-04 09:01:00,23.0,19.0,30.17,West,267,0.0,3.0,86,0.00,,,0.00,,2013-03-04 14:01:00,
2013-03-04 09:12:00,23.0,19.0,30.17,West,267,0.0,3.0,86,0.00,,,0.00,,2013-03-04 14:12:00,
2013-03-04 09:22:00,24.0,20.0,30.17,WNW,298,1.0,5.0,85,0.00,,,0.00,,2013-03-04 14:22:00,
2013-03-04 09:32:00,25.0,21.0,30.17,WNW,288,1.0,3.0,84,0.00,,,0.00,,2013-03-04 14:32:00,
2013-03-04 09:42:00,25.0,21.0,30.17,WNW,288,1.0,3.0,84,0.00,,,0.00,,2013-03-04 14:42:00,
2013-03-04 09:52:00,25.0,20.0,30.16,WNW,288,1.0,3.0,82,0.00,,,0.00,,2013-03-04 14:52:00,
2013-03-04 10:02:00,26.0,21.0,30.16,WNW,297,0.0,4.0,82,0.00,,,0.00,,2013-03-04 15:02:00,
2013-03-04 10:11:00,26.0,21.0,30.16,WNW,297,0.0,4.0,82,0.00,,,0.00,,2013-03-04 15:11:00,
2013-03-04 10:22:00,27.0,22.0,30.16,WNW,292,0.0,4.0,80,0.00,,,0.00,,2013-03-04 15:22:00,
2013-03-04 10:32:00,27.0,21.0,30.16,WNW,287,0.0,3.0,79,0.00,,,0.00,,2013-03-04 15:32:00,
2013-03-04 10:42:00,27.0,21.0,30.16,WNW,287,0.0,3.0,79,0.00,,,0.00,,2013-03-04 15:42:00,
2013-03-04 10:52:00,28.0,21.0,30.16,WNW,288,0.0,4.0,75,0.00,,,0.00,,2013-03-04 15:52:00,
2013-03-04 11:03:00,28.0,22.0,30.16,West,281,2.0,5.0,77,0.00,,,0.00,,2013-03-04 16:03:00,
2013-03-04 11:11:00,28.0,22.0,30.16,West,281,2.0,5.0,77,0.00,,,0.00,,2013-03-04 16:11:00,
2013-03-04 11:21:00,28.0,21.0,30.16,SSW,192,0.0,3.0,74,0.00,,,0.00,,2013-03-04 16:21:00,
2013-03-04 11:32:00,29.0,21.0,30.16,SSE,166,0.0,3.0,73,0.00,,,0.00,,2013-03-04 16:32:00,
2013-03-04 11:42:00,29.0,21.0,30.16,SSE,166,0.0,3.0,73,0.00,,,0.00,,2013-03-04 16:42:00,
2013-03-04 11:52:00,30.0,22.0,30.15,South,181,2.0,5.0,73,0.00,,,0.00,,2013-03-04 16:52:00,
2013-03-04 12:02:00,30.0,22.0,30.15,North,360,0.0,2.0,73,0.00,,,0.00,,2013-03-04 17:02:00,
2013-03-04 12:11:00,30.0,22.0,30.15,North,360,0.0,2.0,73,0.00,,,0.00,,2013-03-04 17:11:00,
2013-03-04 12:22:00,31.0,23.0,30.15,WSW,254,0.0,4.0,71,0.00,,,0.00,,2013-03-04 17:22:00,
2013-03-04 12:32:00,31.0,22.0,30.14,WNW,282,3.0,5.0,69,0.00,,,0.00,,2013-03-04 17:32:00,
2013-03-04 12:42:00,31.0,22.0,30.14,WNW,282,3.0,5.0,69,0.00,,,0.00,,2013-03-04 17:42:00,
2013-03-04 12:52:00,32.0,23.0,30.14,WNW,282,0.0,4.0,69,0.00,,,0.00,,2013-03-04 17:52:00,
2013-03-04 13:02:00,32.0,24.0,30.13,East,79,0.0,3.0,71,0.00,,,0.00,,2013-03-04 18:02:00,
2013-03-04 13:11:00,32.0,24.0,30.13,East,79,0.0,3.0,71,0.00,,,0.00,,2013-03-04 18:11:00,
2013-03-04 13:22:00,32.0,22.0,30.12,WNW,288,1.0,5.0,66,0.00,,,0.00,,2013-03-04 18:22:00,
2013-03-04 13:32:00,33.0,24.0,30.11,ENE,61,1.0,3.0,69,0.00,,,0.00,,2013-03-04 18:32:00,
2013-03-04 13:42:00,33.0,24.0,30.11,ENE,61,1.0,3.0,69,0.00,,,0.00,,2013-03-04 18:42:00,
2013-03-04 13:52:00,35.0,24.0,30.11,ENE,78,0.0,3.0,64,0.00,,,0.00,,2013-03-04 18:52:00,
2013-03-04 14:02:00,35.0,23.0,30.11,West,273,2.0,4.0,61,0.00,,,0.00,,2013-03-04 19:02:00,
2013-03-04 14:12:00,35.0,23.0,30.11,West,273,2.0,4.0,61,0.00,,,0.00,,2013-03-04 19:12:00,
2013-03-04 14:22:00,35.0,23.0,30.10,SSE,157,0.0,5.0,62,0.00,,,0.00,,2013-03-04 19:22:00,
2013-03-04 14:32:00,35.0,23.0,30.10,South,187,0.0,4.0,61,0.00,,,0.00,,2013-03-04 19:32:00,
2013-03-04 14:42:00,35.0,23.0,30.10,South,187,0.0,4.0,61,0.00,,,0.00,,2013-03-04 19:42:00,
2013-03-04 14:52:00,35.0,24.0,30.09,SSE,161,0.0,5.0,63,0.00,,,0.00,,2013-03-04 19:52:00,
2013-03-04 15:02:00,35.0,24.0,30.09,SSW,200,0.0,3.0,64,0.00,,,0.00,,2013-03-04 20:02:00,
2013-03-04 15:12:00,35.0,24.0,30.09,SSW,200,0.0,3.0,64,0.00,,,0.00,,2013-03-04 20:12:00,
2013-03-04 15:22:00,35.0,24.0,30.09,SSW,200,0.0,3.0,64,0.00,,,0.00,,2013-03-04 20:22:00,
2013-03-04 15:32:00,34.0,22.0,30.08,SSW,200,0.0,3.0,62,0.00,,,0.00,,2013-03-04 20:32:00,
2013-03-04 15:42:00,34.0,22.0,30.08,SSW,200,0.0,3.0,62,0.00,,,0.00,,2013-03-04 20:42:00,
2013-03-04 15:53:00,34.0,22.0,30.08,East,81,0.0,3.0,62,0.00,,,0.00,,2013-03-04 20:53:00,
2013-03-04 16:02:00,35.0,24.0,30.08,ENE,74,0.0,5.0,65,0.00,,,0.00,,2013-03-04 21:02:00,
2013-03-04 16:12:00,35.0,24.0,30.08,ENE,74,0.0,5.0,65,0.00,,,0.00,,2013-03-04 21:12:00,
2013-03-04 16:22:00,35.0,24.0,30.08,ESE,104,0.0,2.0,63,0.00,,,0.00,,2013-03-04 21:22:00,
2013-03-04 16:32:00,35.0,24.0,30.08,ESE,104,0.0,2.0,63,0.00,,,0.00,,2013-03-04 21:32:00,
2013-03-04 16:42:00,35.0,24.0,30.08,ESE,104,0.0,2.0,63,0.00,,,0.00,,2013-03-04 21:42:00,
2013-03-04 16:53:00,35.0,23.0,30.08,ENE,76,1.0,4.0,62,0.00,,,0.00,,2013-03-04 21:53:00,
2013-03-04 17:02:00,35.0,23.0,30.07,East,82,0.0,3.0,61,0.00,,,0.00,,2013-03-04 22:02:00,
2013-03-04 17:12:00,35.0,23.0,30.07,East,82,0.0,3.0,61,0.00,,,0.00,,2013-03-04 22:12:00,
2013-03-04 17:22:00,35.0,23.0,30.08,SSE,158,0.0,3.0,62,0.00,,,0.00,,2013-03-04 22:22:00,
2013-03-04 17:32:00,35.0,24.0,30.07,East,93,0.0,3.0,65,0.00,,,0.00,,2013-03-04 22:32:00,
2013-03-04 17:42:00,35.0,24.0,30.07,East,93,0.0,3.0,65,0.00,,,0.00,,2013-03-04 22:42:00,
2013-03-04 17:52:00,35.0,23.0,30.07,SE,130,0.0,2.0,61,0.00,,,0.00,,2013-03-04 22:52:00,
2013-03-04 18:02:00,35.0,24.0,30.07,East,80,0.0,3.0,63,0.00,,,0.00,,2013-03-04 23:02:00,
2013-03-04 18:11:00,35.0,24.0,30.07,East,80,0.0,3.0,63,0.00,,,0.00,,2013-03-04 23:11:00,
2013-03-04 18:22:00,34.0,23.0,30.07,East,82,0.0,3.0,65,0.00,,,0.00,,2013-03-04 23:22:00,
2013-03-04 18:32:00,34.0,23.0,30.07,ENE,63,1.0,4.0,65,0.00,,,0.00,,2013-03-04 23:32:00,
2013-03-04 18:42:00,34.0,23.0,30.07,ENE,63,1.0,4.0,65,0.00,,,0.00,,2013-03-04 23:42:00,
2013-03-04 18:52:00,34.0,25.0,30.07,East,81,0.0,1.0,68,0.00,,,0.00,,2013-03-04 23:52:00,
2013-03-04 19:02:00,33.0,24.0,30.07,East,79,0.0,2.0,69,0.00,,,0.00,,2013-03-05 00:02:00,
2013-03-04 19:12:00,33.0,24.0,30.07,East,79,0.0,2.0,69,0.00,,,0.00,,2013-03-05 00:12:00,
2013-03-04 19:22:00,33.0,24.0,30.07,East,86,0.0,2.0,70,0.00,,,0.00,,2013-03-05 00:22:00,
2013-03-04 19:32:00,33.0,24.0,30.07,East,86,0.0,3.0,69,0.00,,,0.00,,2013-03-05 00:32:00,
2013-03-04 19:42:00,33.0,24.0,30.07,East,86,0.0,3.0,69,0.00,,,0.00,,2013-03-05 00:42:00,
2013-03-04 19:52:00,33.0,24.0,30.06,ENE,75,0.0,3.0,70,0.00,,,0.00,,2013-03-05 00:52:00,
2013-03-04 20:02:00,33.0,24.0,30.06,East,101,0.0,5.0,69,0.00,,,0.00,,2013-03-05 01:02:00,
2013-03-04 20:12:00,33.0,24.0,30.06,East,101,0.0,5.0,69,0.00,,,0.00,,2013-03-05 01:12:00,
2013-03-04 20:22:00,33.0,24.0,30.06,East,101,0.0,5.0,69,0.00,,,0.00,,2013-03-05 01:22:00,
2013-03-04 20:32:00,33.0,24.0,30.06,SE,124,1.0,5.0,70,0.00,,,0.00,,2013-03-05 01:32:00,
2013-03-04 20:42:00,33.0,24.0,30.06,SE,124,1.0,5.0,70,0.00,,,0.00,,2013-03-05 01:42:00,
2013-03-04 20:52:00,33.0,25.0,30.06,East,100,0.0,5.0,71,0.00,,,0.00,,2013-03-05 01:52:00,
2013-03-04 21:02:00,32.0,24.0,30.06,SE,126,0.0,5.0,71,0.00,,,0.00,,2013-03-05 02:02:00,
2013-03-04 21:12:00,32.0,24.0,30.06,SE,126,0.0,5.0,71,0.00,,,0.00,,2013-03-05 02:12:00,
2013-03-04 21:22:00,33.0,25.0,30.07,ENE,73,0.0,6.0,71,0.00,,,0.00,,2013-03-05 02:22:00,
2013-03-04 21:32:00,33.0,25.0,30.07,East,98,0.0,4.0,71,0.00,,,0.00,,2013-03-05 02:32:00,
2013-03-04 21:42:00,33.0,25.0,30.07,East,98,0.0,4.0,71,0.00,,,0.00,,2013-03-05 02:42:00,
2013-03-04 21:53:00,33.0,24.0,30.08,NNE,30,0.0,2.0,70,0.00,,,0.00,,2013-03-05 02:53:00,
2013-03-04 22:02:00,33.0,24.0,30.09,NNE,30,0.0,2.0,70,0.00,,,0.00,,2013-03-05 03:02:00,
2013-03-04 22:12:00,33.0,24.0,30.09,NNE,30,0.0,2.0,70,0.00,,,0.00,,2013-03-05 03:12:00,
2013-03-04 22:22:00,33.0,25.0,30.09,NE,49,0.0,2.0,71,0.00,,,0.00,,2013-03-05 03:22:00,
2013-03-04 22:32:00,33.0,25.0,30.10,NE,49,0.0,1.0,72,0.00,,,0.00,,2013-03-05 03:32:00,
2013-03-04 22:42:00,33.0,25.0,30.10,NE,49,0.0,1.0,72,0.00,,,0.00,,2013-03-05 03:42:00,
2013-03-04 22:52:00,33.0,25.0,30.10,NE,49,0.0,1.0,72,0.00,,,0.00,,2013-03-05 03:52:00,
2013-03-04 23:02:00,33.0,26.0,30.09,East,80,0.0,1.0,74,0.00,,,0.00,,2013-03-05 04:02:00,
2013-03-04 23:12:00,33.0,26.0,30.09,East,80,0.0,1.0,74,0.00,,,0.00,,2013-03-05 04:12:00,
2013-03-04 23:22:00,33.0,26.0,30.09,East,80,0.0,1.0,74,0.00,,,0.00,,2013-03-05 04:22:00,
2013-03-04 23:32:00,32.0,25.0,30.09,NE,51,0.0,3.0,76,0.00,,,0.00,,2013-03-05 04:32:00,
2013-03-04 23:42:00,32.0,25.0,30.09,NE,51,0.0,3.0,76,0.00,,,0.00,,2013-03-05 04:42:00,
2013-03-04 23:52:00,32.0,25.0,30.09,East,81,0.0,2.0,76,0.00,,,0.00,,2013-03-05 04:52:00,